AirNav   Air Wisconsin Up To $57,000 Bonus
 
 718 users online  

9A0 Lumpkin County-Wimpys Airport
Dahlonega, Georgia, USA

GOING TO DAHLONEGA?


FAA INFORMATION EFFECTIVE 19 MAY 2022

Location

FAA Identifier: 9A0
Lat/Long: 34-34-59.1300N 084-01-11.8500W
34-34.985500N 084-01.197500W
34.5830917,-84.0199583
(estimated)
Elevation: 1328.8 ft. / 405 m (estimated)
Variation: 03W (1985)
From city: 3 miles NW of DAHLONEGA, GA
Time zone: UTC -4 (UTC -5 during Standard Time)
Zip code: 30533

Airport Operations

Airport use: Open to the public
Activation date: 08/1956
Control tower: no
ARTCC: ATLANTA CENTER
FSS: MACON FLIGHT SERVICE STATION
NOTAMs facility: MCN (NOTAM-D service available)
Attendance: UNATNDD
Wind indicator: yes
Segmented circle: no

Airport Communications

CTAF: 122.9
WX AWOS-3PT at DZJ (16 nm N): 119.325 (706-745-9271)

Nearby radio navigation aids

VOR radial/distance  VOR name  Freq  Var
HRSr193/22.2HARRIS VORTAC109.8000E
ODFr259/36.3FOOTHILLS VOR/DME113.4000E

 
NDB name  Hdg/Dist  Freq  Var  ID
FLOWERY BRANCH349/23.536503WFKV ..-. -.- ...-
CHERO054/30.541505WDJD -.. .--- -..

Airport Services

Fuel available: 100LL
100LL:24 HOUR SELF SERVE WITH CREDIT CARD.
Parking: tiedowns
Airframe service: NONE
Powerplant service: NONE
Bottled oxygen: NONE
Bulk oxygen: NONE

Runway Information

Runway 15/33

Dimensions: 3024 x 50 ft. / 922 x 15 m
Surface: asphalt, in good condition
Weight bearing capacity: 
Single wheel: 12.0
RUNWAY 15  RUNWAY 33
Latitude: 34-35.201667N34-34.769333N
Longitude: 084-01.347667W084-01.047333W
Elevation: 1328.8 ft.1308.2 ft.
Traffic pattern: leftleft
Runway heading: 153 magnetic, 150 true333 magnetic, 330 true
Displaced threshold: 681 ft.693 ft.
Markings: basic, in fair conditionbasic, in fair condition
Obstructions: 173 ft. trees, 1411 ft. from runway, 225 ft. left of centerline, 7:1 slope to clear
13:1 APCH SLP TO DSPLCD THLD, TREES 2469 FT OUT & 120 FT LEFT.
113 ft. trees, 1330 ft. from runway, 200 ft. left of centerline, 10:1 slope to clear
APCH SLOPE 25:1 TO DSPLCD THLD, TREELINE 2,325 FROM DSPLCD THLD.

Airport Ownership and Management from official FAA records

Ownership: Publicly-owned
Owner: LUMPKIN COUNTY AIRPORT AUTHORITY
99 COURTHOUSE HILL, SUITE H
DAHLONEGA, GA 30533
Phone (706) 265-0284
Manager: JIMMY BERRONG
99 COURTHOUSE HILL, SUITE H
DAHLONEGA, GA 30533
Phone (706) 265-0284
AIRPORT ADDRESS: 1682 CAMP WAHSEGA RD

Airport Operational Statistics

Aircraft based on the field: 21
Single engine airplanes: 21
    
Aircraft operations: avg 107/week *
54% local general aviation
36% transient general aviation
11% military
* for 12-month period ending 31 December 2020

Additional Remarks

ARPT CLSD TO ACFT AT NIGHT, DAYTIME USE ONLY.
DEER & WILDLIFE ON OR INVOF ARPT.
FOR CD CTC ATLANTA ARTCC AT 770-210-7692.

Instrument Procedures

There are no published instrument procedures at 9A0.

Some nearby airports with instrument procedures:

KDZJ - Blairsville Airport (16 nm N)
KGVL - Lee Gilmer Memorial Airport (21 nm SE)
KJZP - Pickens County Airport (23 nm W)
KAJR - Habersham County Airport (23 nm E)
49A - Gilmer County Airport (25 nm W)
 
Loc | Ops | Rwys | IFR | FBO | Links
Com | Nav | Svcs | Stats | Notes
Area around 9A0 (Lumpkin County-Wimpys Airport)
 
Road maps at: MapQuest Bing Google
 
Aerial photo
WARNING: Photo may not be current or correct
Aerial photo of 9A0 (Lumpkin County-Wimpys Airport)
Photo by Jerry Morris
Photo taken 17-Sep-2015
looking south.

Do you have a better or more recent aerial photo of Lumpkin County-Wimpys Airport that you would like to share? If so, please send us your photo.

 
Sectional chart

 
Airport distance calculator
Flying to Lumpkin County-Wimpys Airport? Find the distance to fly.

From to 9A0

Sunrise and sunset
Times for 27-May-2022
 Local
(UTC-4)
 Zulu
(UTC)
Morning civil twilight05:5909:59
Sunrise06:2710:27
Sunset20:3900:39
Evening civil twilight21:0801:08

Current date and time
Zulu (UTC)  27-May-2022 04:26:14
Local (UTC-4)  27-May-2022 00:26:14
 
METAR
KDZJ 
16nm N 
270415Z AUTO 19005KT 4SM -RA BR BKN018 OVC025 18/17 A2998 RMK AO2 P0002 T01830173
KGVL 
21nm SE 
270416Z AUTO 19005KT 10SM SCT009 BKN012 OVC049 20/18 A2998 RMK AO2 T02000183
KJZP 
23nm W 
270415Z AUTO 00000KT 7SM RA OVC006 18/18 A2999 RMK AO2 T01830183
KAJR 
23nm E 
270415Z AUTO 18005KT 10SM RA OVC005 20/19 A2997 RMK AO2 T02030190
K49A 
25nm W 
270415Z AUTO 20006KT 10SM -RA BKN005 BKN014 OVC035 19/18 A2998 RMK AO2 T01910180
KCNI 
26nm SW 
270415Z AUTO 00000KT 10SM OVC012 20/20 A2997 RMK AO2
TAF
KPDK 
44nm S 
262208Z 2622/2718 20010G20KT P6SM VCSH SCT015 BKN035 TEMPO 2702/2704 3SM SHRA BR BKN008 FM270400 23006KT P6SM BKN012 FM271300 22007KT P6SM SCT012 FM271700 24012KT P6SM FEW035
KRYY 
45nm SW 
262212Z 2622/2718 22012KT P6SM VCSH BKN015 BKN025 TEMPO 2702/2704 3SM SHRA BR BKN009 FM270400 23006KT P6SM BKN012 FM271300 22007KT P6SM SCT012 FM271700 24012KT P6SM FEW035
KMGE 
47nm SW 
262115Z 2621/2803 17009KT 9999 VCSH BKN015 BKN040 BKN120 OVC180 QNH2995INS TEMPO 2621/2623 19015G25KT 510004 540404 BECMG 2622/2623 20010G15KT 9999 VCSH SCT015 BKN025 BKN040 BKN120 BKN200 QNH2994INS BECMG 2702/2703 20012G18KT 9000 -SHRA BR VCTS BKN020CB OVC040 QNH2993INS BECMG 2704/2705 21012G20KT 8000 -TSRA BR BKN012CB OVC050 QNH2991INS BECMG 2708/2709 21012G20KT 9999 NSW SCT015 BKN025 BKN080 BKN150 BKN250 QNH2987INS BECMG 2714/2715 25015G25KT 9999 FEW025 SCT150 SCT250 510005 540505 QNH2988INS
NOTAMs
Click for the latest NOTAMs
NOTAMs are issued by the DoD/FAA and will open in a separate window not controlled by AirNav.

 

 
 

FBO, Fuel Providers, and Aircraft Ground Support

  
 Business Name 
 
 Contact 
 
 Services / Description 
 
Fuel Prices
 
Comments
  
Lumpkin County-Wimpy's Airport 706-265-0284
no information available

If you are affiliated with Lumpkin County-Wimpy's Airport and would like to show here your services, contact info, web link, logo, and more, click here
no prices available
 
   1 read write
Update Fuel Prices
 

Would you like to see your business listed on this page?

 If your business provides an interesting product or service to pilots, flight crews, aircraft, or users of the Lumpkin County-Wimpys Airport, you should consider listing it here.  To start the listing process, click on the button below
 
Add a business
 

Other Pages about Lumpkin County-Wimpys Airport

Update a link
 
Copyright © AirNav, LLC. All rights reserved. Privacy Policy  Contact